Cloud_Cover
8 8 12 24 20 24 24 24 68 56 24 20 12 8 0 0 0 0 0 0 0 0 0 0 0 0 0 0 0 0 0 0 0 0 0 0 0 0 0 0 0 0 0 0 0 0 0 0 0 0 0 0 0 0 0 0 0 0 0 0 0 0 0 0 0 0 0 0 0
24 24 32 44 44 32 24 32 36 64 76 68 48 32 20 8 8 8 12 12 12 8 8 8 8 8 0 0 0 0 0 12 12 12 12 8 8 8 8 8 8 8 8 8 8 8 8 8 0 0 0 0 0 0 0 0 0 0 0 0 0 0 0 0 0 0 0 0 0
36 36 44 44 44 44 36 36 32 32 48 88 80 64 36 24 24 24 24 24 24 24 24 24 24 24 24 20 20 24 32 32 24 24 24 20 20 20 20 20 12 12 12 12 12 12 8 8 8 0 0 0 0 0 0 0 0 0 0 0 0 0 0 0 0 0 0 0 0
36 36 36 44 48 48 48 48 44 44 44 48 44 44 48 44 48 44 44 36 44 48 48 44 44 44 44 44 44 44 36 36 36 36 36 32 24 24 20 20 12 12 12 8 8 8 0 0 0 0 0 0 0 0 0 0 0 0 0 0 0 0 0 0 0 0 0 0 0
24 24 24 32 32 32 32 32 32 32 36 56 36 32 32 32 44 36 32 44 44 44 44 44 44 44 36 32 24 20 20 20 20 20 20 20 12 12 8 8 8 8 8 0 0 0 0 0 0 0 0 0 0 0 0 0 0 0 0 0 0 0 0 0 0 0 0 0 0
12 12 12 20 20 20 20 20 20 20 20 44 20 8 8 0 8 8 8 12 12 12 12 12 12 32 36 8 8 0 0 0 0 0 0 8 0 0 0 8 8 0 0 0 0 0 0 0 0 0 0 0 0 0 0 0 0 0 0 0 0 0 0 0 0 0 0 0 0
8 8 8 8 8 12 12 12 8 8 8 0 0 0 0 0 0 0 0 0 0 0 12 44 20 8 0 0 0 0 0 0 0 0 0 0 0 0 0 0 0 0 0 0 0 0 0 0 0 0 0 0 0 0 0 0 0 0 0 0 0 0 0 0 0 0 0 0 0
8 8 8 8 8 8 8 0 0 0 0 0 0 0 0 0 0 0 0 0 0 0 0 8 0 0 0 0 0 0 0 0 0 0 0 0 0 0 0 0 0 24 36 0 8 0 0 0 0 0 0 0 0 0 0 0 0 0 0 0 0 0 0 0 0 0 0 0 0
8 12 8 8 0 0 0 0 0 0 0 0 0 0 0 0 0 0 0 0 0 0 0 0 0 0 0 0 0 0 0 0 8 20 32 48 24 8 8 24 8 0 0 8 56 44 0 0 0 0 0 0 0 0 0 0 0 0 0 0 0 0 0 0 0 0 0 0 0
0 8 12 12 12 12 8 8 0 0 0 0 0 0 0 0 0 0 0 0 0 0 0 0 0 0 0 0 0 0 0 8 56 76 76 68 68 48 24 8 12 24 44 68 76 56 24 12 8 8 12 8 0 0 8 0 12 12 8 8 0 0 0 0 0 0 0 0 0
0 8 12 12 20 20 20 20 20 12 12 12 8 8 8 8 0 0 0 8 0 0 0 0 0 0 0 0 0 0 0 0 44 68 68 48 24 44 48 12 64 80 80 80 80 80 76 76 56 64 68 36 20 32 36 12 24 36 44 36 8 0 0 0 0 0 0 0 0
0 0 0 8 12 12 20 20 24 32 32 20 20 20 20 20 12 12 20 44 24 12 8 0 0 0 0 0 0 0 0 0 0 36 76 64 36 32 32 32 68 80 80 80 80 80 76 76 76 68 56 32 36 44 44 36 36 56 64 20 0 0 0 0 0 0 12 20 20
0 0 0 0 8 8 12 20 20 36 44 24 24 24 24 24 20 20 24 36 24 20 12 12 12 8 8 0 0 0 0 0 0 36 76 76 48 44 48 56 68 76 80 80 80 80 80 76 68 56 56 76 76 76 80 80 76 68 56 20 8 0 0 0 0 12 24 32 36
0 0 0 0 0 8 8 12 12 32 44 24 24 20 20 20 20 24 32 32 24 24 20 20 24 20 12 12 12 12 8 8 8 44 76 64 56 56 68 76 68 76 80 80 80 80 80 80 68 68 76 76 76 76 80 80 80 68 48 44 12 0 0 0 0 0 12 48 64
0 8 8 8 8 8 8 8 8 24 36 32 32 24 20 20 20 32 36 32 24 24 24 24 24 20 20 20 20 20 20 12 12 44 76 56 76 64 56 76 68 76 80 80 80 80 80 80 80 80 76 76 76 76 76 76 80 76 68 32 8 0 0 0 0 8 36 88 80
0 0 8 8 8 8 8 8 8 12 24 36 32 32 24 24 24 24 32 32 24 20 24 24 20 20 20 20 24 24 20 20 32 56 80 76 76 64 64 80 68 68 80 80 80 80 80 80 80 80 80 76 76 76 76 76 76 76 64 20 0 0 0 0 0 32 68 88 88
0 0 0 0 0 8 8 8 8 8 12 20 20 24 24 24 24 32 36 36 32 24 24 24 24 20 20 20 24 24 20 20 48 68 80 80 68 64 68 80 80 80 80 80 80 80 80 80 80 80 80 80 76 76 76 76 56 56 48 20 8 0 0 0 0 32 68 88 92
0 0 0 0 0 0 0 0 0 0 8 8 12 20 20 20 20 32 36 36 36 32 24 24 44 48 36 24 24 20 20 20 56 76 76 64 64 76 80 80 80 80 80 80 80 80 80 80 80 80 80 80 80 80 76 56 24 24 24 0 8 0 0 0 24 48 68 80 88
0 0 0 0 0 0 0 0 0 0 0 0 12 20 20 8 12 12 12 12 48 44 32 56 76 76 68 56 56 36 32 56 76 80 76 64 76 80 80 80 80 80 80 80 80 80 80 80 80 80 80 80 80 80 68 36 20 12 8 0 0 0 0 0 56 80 88 88 88
0 0 0 0 0 0 0 0 0 0 0 0 8 20 24 12 8 8 12 48 44 48 56 80 80 80 80 80 80 68 64 64 68 76 80 80 80 80 80 80 80 80 80 80 80 80 80 80 80 80 80 80 80 80 76 64 32 12 8 0 0 0 0 20 68 88 88 88 64
0 0 0 0 0 0 0 0 0 0 0 0 0 8 8 8 12 12 32 76 64 68 76 76 76 76 76 76 76 76 76 68 68 76 80 80 80 80 80 80 80 80 80 80 80 80 80 80 80 80 80 80 80 76 76 76 32 12 8 0 32 32 32 68 80 68 48 56 24
0 0 0 0 0 0 0 0 0 0 0 0 0 0 0 12 44 56 64 76 76 76 76 76 76 76 76 76 76 76 76 76 48 48 64 68 76 76 76 76 80 80 80 80 80 80 80 80 80 80 80 80 80 76 68 48 24 12 0 0 24 44 56 88 92 68 56 68 64
0 0 0 0 0 0 0 0 0 0 0 0 0 0 0 0 56 76 76 76 76 76 76 76 76 76 76 76 76 76 68 48 32 32 44 76 76 76 76 76 76 76 76 76 76 76 76 76 80 76 76 76 76 76 76 64 44 24 20 48 56 44 48 88 88 80 80 80 80
0 0 0 0 0 0 0 0 0 0 0 0 0 0 0 0 24 56 76 76 76 76 76 76 76 76 76 76 76 76 68 68 64 64 64 48 68 76 76 76 76 76 76 76 76 76 76 76 56 64 76 76 76 56 32 32 36 32 36 68 68 76 76 88 80 64 36 48 76
0 0 0 0 0 0 0 0 0 0 0 0 0 0 0 0 0 32 68 76 76 76 76 76 76 76 76 76 76 76 76 76 76 76 68 68 48 64 76 76 76 76 76 76 76 76 76 76 44 56 68 36 68 56 32 12 12 12 24 68 68 76 80 80 64 36 32 76 80
0 0 0 0 0 0 0 0 0 0 0 0 0 0 0 0 0 12 36 56 68 76 76 76 76 76 76 76 76 76 76 76 76 76 76 76 68 68 76 76 76 76 76 76 76 80 80 80 76 80 80 68 36 24 20 0 0 0 0 8 20 48 76 80 36 20 32 80 88
0 0 0 0 0 0 0 0 0 0 0 0 0 0 0 0 0 0 20 68 76 76 76 76 76 76 76 76 76 76 76 80 76 76 76 80 76 76 76 76 76 76 80 80 80 80 80 80 80 88 88 88 32 8 0 0 0 0 0 20 44 68 88 80 68 44 36 80 88
0 0 0 0 0 0 0 0 0 0 0 0 0 0 0 0 0 0 12 68 44 56 76 76 76 76 80 80 80 76 76 80 80 80 76 76 76 68 68 80 80 80 80 80 80 80 80 88 88 88 88 88 80 80 64 24 12 0 20 76 68 76 80 64 56 48 56 88 88
0 0 0 0 0 0 0 0 0 0 0 0 0 0 0 0 0 0 0 20 44 64 68 76 80 80 80 80 80 80 80 80 80 80 80 76 76 76 80 80 80 80 80 80 80 80 80 88 88 88 88 88 88 88 76 32 32 36 48 48 56 68 88 88 88 68 56 88 88
0 0 0 0 0 0 0 0 0 0 0 0 0 0 0 0 0 0 20 48 68 56 36 48 76 80 80 80 80 80 80 80 80 80 80 76 76 76 76 76 48 36 48 80 80 88 80 56 80 88 88 88 88 88 88 88 88 80 80 88 88 88 88 88 68 56 56 64 80
0 0 0 0 0 0 0 0 0 0 0 0 0 0 0 0 0 0 0 0 32 36 44 68 76 80 80 80 80 80 76 76 76 76 76 76 76 76 68 64 48 44 48 76 80 80 88 88 88 88 88 88 92 92 92 92 88 92 92 88 88 88 88 88 88 88 80 64 80
0 0 0 0 0 0 0 8 0 0 0 0 0 0 0 0 0 0 0 0 48 76 80 80 80 80 76 76 76 76 76 76 76 76 76 76 76 76 68 48 44 44 48 76 80 80 80 88 88 88 88 92 92 92 92 92 88 88 88 88 88 88 88 88 76 80 88 88 56
0 0 0 0 0 0 0 0 12 12 12 8 0 0 0 0 0 0 0 0 0 36 68 68 76 76 68 68 76 76 76 76 76 76 76 76 76 68 68 68 44 36 44 76 76 80 80 88 88 92 92 92 92 92 92 92 92 88 88 88 88 88 88 76 80 80 80 76 36
0 0 0 0 0 0 0 0 8 12 12 20 20 12 8 0 0 0 0 0 12 36 44 32 48 56 48 44 64 68 76 76 76 76 68 68 68 68 68 68 44 48 64 76 56 64 80 88 88 88 92 92 92 92 92 92 92 88 88 88 88 88 88 88 80 64 44 32 24
0 0 0 0 0 0 0 8 8 12 12 20 20 20 20 20 8 0 0 0 0 32 64 36 32 32 36 44 48 64 68 68 76 68 56 56 64 68 64 56 24 20 32 44 36 36 48 80 76 88 92 92 92 92 92 92 88 88 88 88 88 76 68 80 64 44 32 20 12
0 0 0 0 0 0 0 8 12 12 12 12 20 20 20 20 12 12 8 0 0 36 68 68 68 68 68 68 68 68 68 68 68 56 44 44 56 56 36 12 12 8 0 8 12 20 32 56 68 80 92 92 92 92 92 92 88 88 88 88 88 80 76 68 56 44 24 12 12
0 0 0 0 0 8 8 8 8 12 12 12 20 20 20 20 12 12 12 12 20 44 68 68 64 64 64 48 48 48 48 44 48 48 44 32 44 36 24 8 0 0 0 0 8 20 44 56 68 80 92 92 92 88 88 88 88 88 88 88 88 68 56 68 44 32 20 12 8
0 0 0 0 0 0 0 8 8 8 8 8 12 12 20 20 20 12 12 20 24 44 68 68 56 48 36 20 24 20 12 12 24 36 36 24 24 24 20 0 0 0 0 0 12 32 48 64 64 76 92 92 92 88 80 88 88 88 88 88 88 76 64 32 32 24 20 8 8
0 0 0 0 0 0 0 8 0 0 0 8 0 8 12 12 20 20 12 20 20 32 44 64 44 24 12 12 24 24 12 0 8 20 24 20 8 8 0 0 0 0 0 8 24 44 48 56 48 64 80 92 92 88 88 88 88 88 88 80 76 76 64 24 32 20 8 0 0
0 0 0 0 0 0 0 0 0 0 0 0 0 0 8 8 12 12 12 20 12 12 24 36 44 32 24 32 44 32 12 8 8 8 8 8 0 0 0 0 0 0 12 24 36 48 56 48 44 48 56 76 88 88 88 88 88 88 80 76 68 68 56 24 20 8 0 0 0
0 0 0 0 0 0 0 0 0 0 0 0 0 0 0 0 0 8 12 20 12 12 20 20 56 56 36 44 44 36 20 20 8 0 0 0 0 0 0 0 0 12 24 24 36 44 48 44 44 36 44 44 64 80 88 80 88 88 88 80 80 76 56 32 12 8 0 0 0